Location: Vigo di Fassa
(46.4167°N, 11.6667°E)
Time: 15:35:10
(UTC+00:00)

Cosmos 2263 Rocket - Pass Details

Date: 03 March 2021
Orbit: 825 x 847 km, 71.0° (Epoch: 15 April)

Event Time Altitude Azimuth Distance (km) Brightness Sun altitude
Rises 17:47:55 0° 328° (NNW) 3,372 5.8 -8.6°
Reaches altitude 10° 17:50:27 10° 322° (NW) 2,434 5.2 -9.1°
Maximum altitude 17:55:40 43° 252° (WSW) 1,148 3.5 -10.0°
Drops below altitude 10° 18:00:53 10° 182° (S) 2,422 4.6 -10.9°
Sets 18:03:24 0° 176° (S) 3,353 5.3 -11.3°
